Garden City, KS

11:17 AM CDT on March 24, 2017 (GMT -0500)
Garden City Regional

Weather History for KGCK - January, 2014

Change the Weather History Date:

Saturday, January 4, 2014

  Actual Average Record
Temperature  
Mean Temperature 29 °F 31 °F  
Max Temperature 39 °F 44 °F 77 °F (1956)
Min Temperature 19 °F 18 °F -17 °F (1974)
Degree Days  
Heating Degree Days 36 34  
Month to date heating degree days 141 136  
Since 1 July heating degree days 2262 2259  
Cooling Degree Days 0 0  
Month to date cooling degree days 0 0  
Year to date cooling degree days 0 0  
Moisture  
Dew Point 20 °F    
Average Humidity 76    
Maximum Humidity 92    
Minimum Humidity 59    
Precipitation  
Precipitation 0.01 in 0.01 in 0.20 in (2005)
Month to date precipitation 0.01 0.04  
Year to date precipitation 0.01 0.04  
Sea Level Pressure  
Sea Level Pressure 29.95 in    
Wind  
Wind Speed 20 mph (NNE)    
Max Wind Speed 30 mph    
Max Gust Speed 35 mph    
Visibility 5 miles    
Events Fog , Snow    
T = Trace of Precipitation, MM = Missing Value Source: NWS Daily Summary

Daily Weather History Graph

Daily Weather History Graph

Search for Another Location

Airport or City:

Trip Planner

Search our weather history database for the weather conditions in past years. The results will help you decide how hot, cold, wet, or windy it might be!

Date:

Astronomy

Jan. 04, 2014 Rise Set
Actual Time 7:59 AM CST 5:36 PM CST
Civil Twilight 7:29 AM CST 6:06 PM CST
Nautical Twilight 6:57 AM CST 6:39 PM CST
Astronomical Twilight 6:25 AM CST 7:10 PM CST
Moon 10:09 AM CST (1/4) 9:54 PM CST (1/4)
Length of Visible Light 10h 36m
Length of Day
9h 37m
Waxing Crescent, 15% of the Moon is Illuminated
Jan 4
Waxing Crescent
Jan 7
First Quarter
Jan 15
Full
Jan 23
Last Quarter
Jan 30
New

Hourly Weather History & Observations

Time (CST) Temp. Windchill Dew Point Humidity Pressure Visibility Wind Dir Wind Speed Gust Speed Precip Events Conditions
12:54 AM 28.0 °F 20.8 °F 21.0 °F 75% 29.60 in 10.0 mi West 6.9 mph - N/A   Clear
1:54 AM 33.1 °F 23.9 °F 21.0 °F 61% 29.59 in 10.0 mi North 12.7 mph - N/A   Clear
2:54 AM 30.9 °F 21.7 °F 21.9 °F 69% 29.61 in 10.0 mi North 11.5 mph - N/A   Clear
3:54 AM 36.0 °F 25.6 °F 25.0 °F 64% 29.67 in 10.0 mi North 18.4 mph - N/A   Clear
4:54 AM 37.0 °F 27.4 °F 28.9 °F 73% 29.71 in 10.0 mi North 17.3 mph - N/A   Clear
5:54 AM 34.0 °F 22.7 °F 27.0 °F 75% 29.77 in 10.0 mi North 19.6 mph - N/A   Clear
6:54 AM 30.9 °F 21.2 °F 25.0 °F 79% 29.80 in 10.0 mi North 12.7 mph - N/A   Clear
7:54 AM 28.9 °F 18.2 °F 24.1 °F 82% 29.82 in 10.0 mi North 13.8 mph - N/A   Clear
8:54 AM 30.9 °F 19.1 °F 25.0 °F 79% 29.88 in 10.0 mi North 18.4 mph - N/A   Clear
9:14 AM 32.0 °F 19.5 °F 25.0 °F 75% 29.84 in 10.0 mi North 21.9 mph 29.9 mph N/A   Mostly Cloudy
9:44 AM 33.1 °F 20.3 °F 27.0 °F 78% 29.87 in 10.0 mi North 24.2 mph 29.9 mph N/A   Overcast
9:54 AM 33.1 °F 19.6 °F 27.0 °F 78% 29.92 in 10.0 mi North 27.6 mph 33.4 mph N/A   Overcast
10:35 AM 33.1 °F 19.1 °F 24.1 °F 70% 29.89 in 10.0 mi North 29.9 mph 35.7 mph N/A   Overcast
10:54 AM 32.0 °F 17.9 °F 23.0 °F 69% 29.96 in 10.0 mi North 28.8 mph - N/A   Overcast
11:54 AM 33.1 °F 19.6 °F 21.9 °F 64% 29.95 in 10.0 mi NNE 27.6 mph 33.4 mph N/A   Overcast
12:54 PM 32.0 °F 19.2 °F 19.9 °F 61% 29.94 in 10.0 mi NNE 23.0 mph 29.9 mph N/A   Overcast
1:54 PM 30.9 °F 16.9 °F 19.0 °F 61% 29.92 in 10.0 mi NNE 26.5 mph 33.4 mph N/A   Overcast
2:38 PM 30.0 °F 16.6 °F 19.9 °F 66% 29.88 in 10.0 mi NNE 23.0 mph 28.8 mph N/A   Overcast
2:54 PM 28.9 °F 14.8 °F 19.9 °F 69% 29.94 in 10.0 mi North 24.2 mph - N/A   Overcast
3:54 PM 27.0 °F 12.8 °F 19.0 °F 72% 29.95 in 10.0 mi NNE 21.9 mph 31.1 mph N/A   Overcast
4:54 PM 24.1 °F 9.8 °F 19.0 °F 81% 30.01 in 2.5 mi NNE 19.6 mph 27.6 mph 0.00 in Snow Light Snow
5:03 PM 24.1 °F 11.5 °F 19.9 °F 84% 29.95 in 1.2 mi NE 15.0 mph - 0.00 in Snow Light Snow
5:14 PM 24.1 °F 12.0 °F 21.0 °F 88% 29.95 in 0.8 mi NE 13.8 mph - 0.00 in Snow Light Snow
5:46 PM 23.0 °F 7.2 °F 19.9 °F 88% 29.96 in 1.0 mi NNE 23.0 mph 34.5 mph 0.00 in Snow Light Snow
5:54 PM 23.0 °F 7.2 °F 19.0 °F 85% 30.03 in 1.2 mi NNE 23.0 mph 29.9 mph 0.00 in Snow Light Snow
6:01 PM 23.0 °F 6.6 °F 19.0 °F 85% 29.97 in 1.0 mi NNE 25.3 mph 29.9 mph 0.00 in Snow Light Snow
6:10 PM 21.9 °F 6.2 °F 19.0 °F 89% 29.99 in 0.8 mi NNE 21.9 mph - 0.00 in Snow Light Snow
6:26 PM 21.9 °F 6.5 °F 19.0 °F 89% 29.99 in 1.0 mi NNE 20.7 mph - 0.00 in Snow Light Snow
6:33 PM 21.9 °F 6.2 °F 19.0 °F 89% 29.99 in 0.5 mi NNE 21.9 mph - 0.00 in Fog , Snow Snow
6:54 PM 21.0 °F 3.6 °F 18.0 °F 88% 30.09 in 0.5 mi NNE 26.5 mph 33.4 mph 0.01 in Fog , Snow Snow
7:17 PM 21.0 °F 6.6 °F 18.0 °F 88% 30.03 in 0.8 mi NNE 17.3 mph - 0.00 in Snow Light Snow
7:30 PM 21.0 °F 6.6 °F 18.0 °F 88% 30.06 in 1.0 mi NNE 17.3 mph - 0.00 in Snow Light Snow
7:54 PM 21.0 °F 6.6 °F 18.0 °F 88% 30.13 in 1.0 mi NNE 17.3 mph - 0.00 in Snow Light Snow
8:01 PM 21.0 °F 6.2 °F 18.0 °F 88% 30.04 in 0.8 mi NNE 18.4 mph - 0.00 in Snow Light Snow
8:14 PM 21.0 °F 7.6 °F 19.0 °F 92% 30.04 in 1.0 mi NNE 15.0 mph - 0.00 in Snow Light Snow
8:22 PM 21.0 °F 6.6 °F 19.0 °F 92% 30.05 in 0.8 mi NNE 17.3 mph - 0.00 in Snow Light Snow
8:54 PM 21.0 °F 7.1 °F 19.0 °F 92% 30.15 in 0.8 mi North 16.1 mph - 0.00 in Snow Light Snow
8:57 PM 21.9 °F 7.3 °F 19.0 °F 89% 30.07 in 1.0 mi North 18.4 mph - 0.00 in Snow Light Snow
9:54 PM 19.9 °F 2.8 °F 17.1 °F 89% 30.16 in 1.0 mi North 24.2 mph 32.2 mph 0.00 in Snow Light Snow
10:02 PM 19.0 °F 2.0 °F 16.0 °F 88% 30.07 in 0.8 mi North 23.0 mph - 0.00 in Snow Light Snow
10:12 PM 19.9 °F 3.5 °F 16.0 °F 85% 30.07 in 1.0 mi NNE 21.9 mph - 0.00 in Snow Light Snow
10:54 PM 19.0 °F 1.3 °F 15.1 °F 85% 30.16 in 1.0 mi North 25.3 mph - 0.00 in Snow Light Snow
11:21 PM 19.0 °F 1.6 °F 14.0 °F 81% 30.08 in 2.0 mi North 24.2 mph - 0.00 in Snow Light Snow
11:35 PM 19.0 °F 2.7 °F 14.0 °F 81% 30.08 in 5.0 mi North 20.7 mph - 0.00 in Snow Light Snow
11:54 PM 19.0 °F 4.5 °F 12.9 °F 77% 30.16 in 9.0 mi North 16.1 mph - 0.00 in   Overcast